Temperature
2 2 2 2 2 2 2 3 4 5 5 5 5 4 4 3 2 2 1 1 2 1 2 2 2 2 2 2 3 3 3 3 3 3 3 3 3 3 3 3 3 3 3 3
1 2 1 1 2 2 2 3 3 3 4 5 4 3 3 2 2 1 1 1 1 1 1 1 1 1 2 2 2 2 2 2 2 2 2 2 2 2 2 2 2 2 2 2
2 1 1 2 2 2 2 2 3 3 4 4 3 3 2 2 1 1 1 0 0 1 1 1 1 1 1 1 1 2 2 2 2 2 2 2 2 2 2 2 2 2 2 2
1 0 1 4 3 2 2 2 2 2 3 3 3 2 1 1 1 0 0 0 0 0 0 0 0 1 1 1 1 1 1 1 1 1 1 1 1 1 1 1 1 1 1 1
0 1 2 3 2 1 1 2 2 2 2 2 1 1 1 1 1 0 0 -0 -0 0 0 0 0 0 0 1 1 1 1 1 1 1 1 1 1 1 1 1 1 1 1 1
-0 1 2 3 2 1 1 2 2 1 1 1 1 2 3 1 0 -0 -0 -0 -0 -0 -0 -0 -0 -0 0 0 0 0 0 0 0 0 0 0 0 0 0 0 1 1 0 0
-0 1 2 2 0 1 2 2 1 1 1 0 1 1 1 0 -0 -0 -1 -1 -0 -0 -0 -0 -0 -0 -0 0 0 -0 -0 -0 0 0 0 0 -0 -0 -0 -0 -0 -0 -0 -0
-0 0 1 1 0 1 2 1 0 0 -0 -0 -0 -1 -0 -0 -0 -1 -1 -1 -1 -1 -1 -1 -1 -1 -0 -0 -0 -0 -0 -0 -0 -0 -0 -0 -1 -1 -1 -1 -1 -1 -1 -1
0 2 1 -0 0 0 0 -0 -0 -0 -1 -1 -1 -1 -1 -1 -1 -1 -2 -1 -1 -1 -1 -1 -1 -1 -1 -1 -1 -1 -1 -1 -1 -1 -1 -1 -1 -1 -1 -1 -1 -1 -1 -1
-1 0 -0 -1 -1 -1 -0 -1 -1 -1 -1 -1 -2 -2 -2 -2 -2 -2 -2 -2 -2 -2 -2 -1 -2 -2 -1 -1 -1 -1 -1 -1 -1 -1 -1 -1 -1 -1 -1 -1 -2 -2 -2 -2
-2 -1 -1 -1 -1 -1 -1 -1 -1 -1 -1 -2 -2 -2 -2 -2 -2 -2 -2 -2 -2 -2 -2 -2 -2 -2 -2 -2 -2 -2 -2 -2 -2 -2 -2 -2 -2 -2 -2 -2 -2 -2 -2 -2
-0 -0 -1 -0 -1 -1 -1 -1 -1 -2 -2 -2 -2 -2 -2 -3 -3 -3 -3 -3 -3 -3 -3 -2 -2 -2 -2 -2 -2 -2 -2 -2 -2 -2 -2 -2 -2 -2 -2 -2 -2 -2 -2 -2
-1 -1 -1 -1 -1 -2 -2 -2 -2 -2 -2 -2 -2 -3 -3 -3 -3 -3 -3 -3 -3 -3 -3 -3 -3 -3 -3 -3 -3 -3 -3 -3 -3 -3 -3 -3 -3 -3 -3 -3 -2 -2 -2 -2
-2 -2 -2 -2 -2 -2 -2 -2 -2 -2 -2 -2 -3 -3 -3 -3 -3 -3 -3 -3 -3 -3 -3 -3 -3 -3 -3 -3 -3 -3 -3 -3 -3 -3 -3 -3 -3 -3 -3 -3 -3 -3 -3 -3
-2 -3 -3 -2 -2 -2 -2 -2 -3 -3 -3 -3 -3 -3 -3 -3 -3 -4 -4 -4 -4 -4 -4 -4 -4 -4 -3 -4 -4 -4 -4 -4 -4 -4 -4 -4 -4 -4 -4 -4 -3 -3 -3 -3
-3 -3 -3 -3 -3 -3 -3 -3 -3 -3 -3 -3 -3 -3 -4 -4 -4 -4 -4 -4 -4 -4 -4 -4 -4 -4 -4 -4 -4 -4 -4 -4 -4 -4 -4 -4 -4 -4 -4 -4 -4 -4 -4 -4
-3 -4 -4 -4 -3 -3 -3 -3 -3 -3 -3 -3 -4 -4 -4 -4 -4 -4 -4 -4 -4 -5 -4 -4 -4 -4 -4 -4 -4 -4 -4 -4 -4 -5 -5 -4 -4 -4 -4 -4 -4 -4 -4 -4
-3 -3 -3 -3 -3 -4 -4 -4 -4 -4 -4 -4 -4 -4 -5 -5 -5 -4 -5 -5 -5 -5 -5 -5 -5 -5 -5 -5 -5 -5 -5 -5 -5 -5 -5 -5 -5 -5 -5 -5 -5 -5 -5 -4
-4 -4 -4 -4 -4 -4 -4 -4 -4 -4 -4 -4 -5 -5 -5 -5 -5 -5 -5 -5 -5 -5 -5 -5 -5 -5 -5 -5 -5 -5 -5 -5 -5 -5 -5 -5 -5 -5 -5 -5 -5 -5 -5 -5
-4 -4 -4 -4 -4 -4 -4 -4 -4 -5 -5 -5 -5 -5 -5 -5 -5 -5 -5 -5 -5 -5 -5 -5 -5 -5 -5 -5 -5 -5 -5 -5 -6 -6 -6 -6 -5 -5 -5 -5 -5 -5 -5 -5
-4 -4 -4 -4 -5 -5 -5 -5 -5 -5 -5 -5 -6 -6 -6 -6 -6 -6 -6 -6 -6 -5 -5 -5 -5 -5 -5 -6 -6 -6 -6 -6 -6 -6 -6 -6 -6 -6 -6 -5 -5 -5 -5 -5
-5 -5 -5 -5 -5 -5 -5 -5 -5 -5 -6 -6 -6 -6 -6 -6 -6 -6 -6 -6 -6 -6 -6 -6 -6 -6 -6 -6 -6 -6 -6 -6 -6 -6 -6 -6 -6 -6 -6 -6 -6 -6 -6 -6
-5 -5 -5 -5 -5 -5 -6 -6 -6 -6 -6 -6 -6 -6 -6 -6 -6 -6 -6 -6 -6 -6 -6 -6 -6 -6 -6 -6 -6 -6 -6 -6 -6 -6 -6 -6 -6 -6 -6 -6 -6 -6 -6 -6
-6 -6 -6 -6 -6 -6 -6 -6 -6 -6 -6 -7 -7 -7 -7 -7 -7 -7 -7 -7 -7 -6 -6 -6 -6 -6 -6 -6 -6 -6 -6 -6 -6 -6 -7 -6 -6 -6 -6 -6 -6 -6 -6 -6
-6 -6 -6 -6 -7 -6 -6 -7 -7 -7 -7 -7 -7 -7 -7 -7 -7 -7 -7 -7 -7 -7 -7 -7 -7 -7 -7 -7 -7 -7 -7 -7 -7 -7 -7 -7 -7 -6 -6 -6 -6 -6 -6 -6
-7 -7 -7 -7 -7 -7 -7 -7 -7 -7 -7 -7 -7 -8 -8 -8 -8 -7 -7 -7 -7 -7 -7 -7 -7 -7 -7 -7 -7 -7 -7 -7 -7 -7 -7 -7 -7 -7 -7 -6 -7 -7 -7 -7
-7 -7 -7 -7 -7 -7 -7 -8 -8 -8 -8 -8 -8 -8 -8 -8 -8 -8 -8 -8 -8 -8 -8 -8 -8 -8 -8 -8 -7 -7 -7 -7 -7 -7 -7 -7 -7 -7 -7 -7 -7 -7 -7 -7
Wind_Speed
9 9 7 9 10 10 12 13 11 12 14 14 11 9 8 7 5 5 5 5 5 4 4 3 2 2 1 1 1 0 1 1 0 0 1 1 2 2 2 2 3 3 3 3
7 7 7 10 12 12 13 14 15 15 16 12 9 8 7 6 5 5 6 6 5 5 4 4 3 3 2 2 1 1 0 0 0 1 1 1 2 2 2 2 3 3 3 3
6 5 6 9 10 11 10 11 11 13 13 9 8 8 7 6 6 6 6 6 6 5 5 5 4 4 3 3 2 1 1 1 1 1 1 2 2 2 2 3 3 3 4 4
4 3 8 5 2 7 10 11 11 11 11 9 8 8 7 6 5 6 7 6 6 6 6 5 5 4 3 3 3 2 2 2 2 2 2 3 3 3 3 3 3 4 4 4
3 6 9 7 4 4 6 8 8 10 10 8 7 6 6 4 4 6 7 6 6 6 6 5 4 4 3 3 3 3 3 3 4 4 3 3 4 4 4 4 4 4 4 4
5 6 7 4 1 2 3 6 4 6 8 7 5 6 6 4 6 7 6 6 5 5 5 4 4 3 4 4 4 4 4 4 4 4 4 4 4 4 4 4 4 4 4 4
8 8 8 5 1 3 5 4 4 5 6 7 8 8 7 7 7 6 6 6 5 5 4 4 4 3 4 4 5 5 4 4 5 5 5 5 5 4 4 4 4 4 5 5
6 8 8 2 3 5 5 5 5 6 7 8 9 9 8 7 6 6 6 6 5 4 4 4 4 4 4 5 5 4 4 4 5 5 4 4 4 4 4 4 4 5 4 5
7 7 4 4 5 5 5 6 7 7 8 7 8 8 8 7 6 6 6 6 5 4 5 4 4 4 5 5 4 4 4 5 4 4 4 4 4 4 4 4 4 4 4 4
7 9 8 8 8 8 8 9 9 8 8 7 8 8 7 6 6 6 6 6 5 5 5 5 4 4 4 4 4 4 4 4 4 4 4 4 4 4 4 4 4 5 5 5
8 9 8 9 9 9 9 9 8 7 7 8 8 8 7 7 6 6 6 6 5 5 5 5 5 4 4 4 3 4 4 4 4 4 4 4 4 4 5 5 5 6 5 5
9 8 7 8 7 8 8 8 8 7 8 7 7 7 6 6 6 6 5 5 5 5 5 5 4 4 4 4 4 4 4 4 4 3 3 3 3 3 4 5 6 7 7 6
9 8 9 10 9 8 8 8 7 7 7 7 6 6 6 5 5 5 5 5 5 5 5 5 4 5 4 4 4 5 5 4 4 4 4 4 4 4 3 3 4 5 6 6
8 7 8 8 8 8 7 6 5 5 5 5 5 5 4 4 5 5 5 5 5 4 4 4 4 4 4 4 4 4 4 4 4 4 4 4 4 4 4 4 3 3 4 5
8 8 8 7 6 6 5 4 4 5 5 4 4 4 4 5 5 5 5 4 3 3 4 4 4 4 4 4 4 4 4 3 3 3 4 4 4 4 4 4 4 3 3 3
7 6 6 6 7 6 5 5 6 6 5 5 5 5 5 5 5 4 4 3 4 4 4 4 5 4 4 3 3 3 3 4 4 3 3 3 4 4 4 4 4 3 3 3
5 5 6 7 8 8 7 6 6 6 5 5 5 5 4 4 4 4 4 4 4 4 4 4 4 4 3 3 3 3 3 3 3 3 3 3 3 4 4 3 3 3 3 4
7 7 7 7 7 7 7 6 5 5 5 5 4 4 4 4 4 4 4 3 3 4 4 4 3 3 3 3 3 3 2 3 3 3 3 3 3 3 3 3 4 4 3 3
6 6 6 5 5 6 6 5 5 5 4 4 4 4 4 4 4 4 3 3 3 4 3 3 3 3 3 3 3 2 2 2 2 2 2 3 3 3 3 3 3 3 3 3
4 4 4 4 4 4 4 4 4 4 4 3 3 3 3 3 3 3 3 3 3 3 3 3 3 3 3 3 3 2 2 2 2 2 2 2 2 2 3 3 3 3 3 3
3 3 3 3 3 3 3 3 3 3 3 3 3 3 3 3 3 2 3 3 3 2 2 3 2 2 2 2 2 1 2 2 2 2 2 2 2 2 3 3 3 3 3 3
2 3 3 3 3 3 3 3 2 2 2 2 2 2 2 2 2 2 3 3 2 3 2 2 2 2 2 2 1 1 1 2 2 2 2 2 2 3 3 3 3 2 2 3
2 3 3 3 3 3 3 2 2 2 2 2 2 2 2 2 2 2 2 2 2 3 3 2 3 3 2 1 1 1 1 1 2 2 2 2 2 3 3 3 3 3 3 3
2 2 2 2 1 1 2 2 2 1 1 2 2 2 2 1 2 2 2 2 3 3 2 2 2 2 2 1 0 1 1 1 1 2 2 2 2 2 2 3 2 2 3 3
2 2 1 1 0 1 1 2 2 2 1 1 2 2 2 1 1 2 2 2 2 2 2 2 3 3 2 1 1 1 1 1 2 2 2 2 2 2 2 2 2 3 3 3
2 1 1 1 1 1 1 1 1 1 1 2 2 2 2 2 1 1 1 1 2 2 2 1 2 2 1 1 1 1 1 2 2 2 2 2 2 2 2 2 2 2 2 2
1 1 1 1 1 1 1 1 1 1 2 1 2 2 2 2 1 1 1 1 1 1 1 1 2 1 1 1 1 1 1 1 1 1 1 1 1 1 2 2 2 2 2 2
Wind_Direction
269 276 262 257 253 239 230 235 244 258 264 276 288 295 298 297 300 306 308 309 306 307 309 308 310 317 316 320 353 67 104 90 62 310 205 168 172 179 185 194 201 201 200 201
270 266 263 260 259 247 242 244 248 261 269 278 288 291 292 292 291 295 297 298 297 297 297 296 298 296 291 293 288 273 204 234 264 268 229 197 192 189 191 204 209 207 209 212
263 286 279 261 250 236 238 239 239 250 263 284 289 291 289 285 283 292 297 295 292 287 282 282 279 271 260 259 257 245 241 252 256 246 242 223 209 199 207 217 216 215 219 220
259 260 246 264 272 236 237 248 242 251 268 277 282 290 288 275 276 292 300 297 294 290 284 281 274 267 259 247 241 235 237 246 252 244 243 236 221 217 222 224 224 224 227 230
230 251 268 277 262 228 236 262 255 253 268 287 302 295 279 271 280 291 292 293 293 291 282 274 266 259 245 237 236 236 240 244 246 239 238 237 232 231 232 229 231 235 233 233
229 249 255 279 303 223 230 266 270 260 272 286 295 281 291 311 298 299 298 295 293 292 285 272 267 251 232 235 239 242 244 245 243 237 234 236 238 238 236 231 233 236 238 238
232 248 263 277 240 184 233 282 318 285 277 274 273 279 298 300 295 292 295 294 294 288 282 274 268 245 233 238 246 254 249 241 238 235 235 236 238 239 233 231 231 235 241 243
217 234 253 186 174 217 267 308 298 294 288 278 278 288 292 294 294 295 297 294 292 286 285 284 269 248 245 249 258 259 246 236 236 237 238 234 233 234 231 227 228 235 241 247
220 239 286 219 236 259 278 282 286 288 290 284 280 281 287 290 291 292 292 288 286 280 281 285 274 255 250 256 259 252 242 236 238 241 241 235 232 232 231 228 229 233 235 242
254 258 265 264 267 271 275 278 282 282 282 277 274 277 279 281 284 287 287 284 282 277 275 281 282 272 260 258 255 243 238 239 239 237 240 238 234 230 230 229 231 233 233 238
254 269 283 269 262 271 280 283 284 285 282 276 273 272 271 274 277 278 281 282 276 272 272 277 280 275 271 261 244 240 241 239 238 238 240 240 240 238 237 239 239 237 236 234
247 257 260 277 285 284 280 280 280 285 288 285 273 267 269 272 274 276 277 278 273 272 270 273 273 272 270 263 244 237 238 239 238 235 235 236 240 249 251 248 255 250 246 243
255 270 270 279 286 287 280 280 281 280 281 284 281 270 266 270 275 277 277 275 272 271 270 269 267 268 267 260 250 243 241 242 237 233 232 234 234 237 245 251 242 241 241 243
254 262 268 270 278 286 287 287 288 286 284 281 279 275 269 271 276 276 276 278 276 271 269 267 264 268 271 260 252 251 248 245 240 235 233 234 234 235 235 238 243 248 246 239
256 251 257 274 284 288 290 289 287 286 290 291 285 275 269 268 273 277 281 282 274 266 266 265 266 271 275 263 253 252 249 242 243 238 234 234 233 234 233 235 239 243 249 242
259 260 258 264 271 279 282 279 276 280 284 285 285 282 276 272 273 277 279 273 264 264 265 265 268 274 275 266 258 257 251 241 243 238 230 227 226 227 227 227 230 232 236 239
244 253 259 269 271 274 274 271 269 272 277 276 278 282 281 278 276 275 279 280 274 268 266 264 270 275 271 263 259 256 251 239 236 235 231 227 225 224 222 222 225 231 239 239
245 249 247 254 260 266 272 274 272 272 273 275 279 274 265 260 263 269 278 284 286 283 275 269 270 273 269 266 265 254 246 243 238 234 234 229 225 222 221 222 226 232 243 245
249 251 256 257 258 257 262 267 270 273 276 270 263 261 261 262 264 268 270 269 269 276 282 281 278 273 271 271 270 248 240 240 243 242 238 228 228 224 222 223 227 233 237 241
253 252 256 264 268 263 262 267 272 273 270 261 262 266 268 268 265 261 260 261 264 273 280 283 281 281 280 272 274 253 241 236 237 239 234 230 226 226 225 225 227 233 237 238
268 263 260 267 275 274 266 263 260 266 272 261 253 258 265 271 261 251 254 278 300 298 285 280 284 280 276 274 276 257 248 243 238 234 230 230 230 230 227 225 226 231 235 238
279 275 275 275 276 282 284 274 261 261 271 275 275 267 261 266 266 269 268 265 285 298 303 286 287 286 287 286 267 249 245 245 241 235 231 229 228 230 229 227 228 232 237 241
281 283 282 279 274 284 298 295 278 257 255 257 257 254 255 264 260 260 287 296 292 301 306 295 300 299 300 302 276 258 249 247 245 242 242 241 238 231 226 226 229 233 236 237
299 300 297 290 274 277 303 316 319 306 293 285 282 269 262 277 295 293 282 291 313 320 323 320 325 327 328 326 285 268 260 258 258 256 252 250 247 240 229 226 228 231 234 239
307 307 299 258 240 275 293 320 344 351 349 337 330 325 311 289 274 293 308 307 319 332 331 327 334 341 348 333 296 279 274 268 264 262 256 250 245 238 233 232 231 233 235 237
306 300 289 281 267 270 285 306 319 321 329 334 337 342 345 344 334 316 312 314 318 333 335 322 322 332 336 325 309 296 285 281 279 273 262 257 250 240 232 230 237 237 239 241
351 354 356 358 349 321 304 297 293 298 303 304 318 327 338 342 342 337 332 331 334 338 334 326 322 324 328 325 323 321 313 302 290 280 270 262 250 236 227 228 234 237 240 240
Height
1488 1486 1486 1484 1482 1482 1482 1477 1473 1464 1463 1460 1461 1462 1462 1462 1461 1460 1459 1458 1457 1456 1456 1455 1455 1455 1455 1456 1456 1457 1457 1458 1459 1461 1462 1463 1464 1465 1466 1467 1468 1469 1470 1470
1489 1485 1485 1482 1477 1476 1475 1474 1470 1467 1463 1460 1461 1461 1460 1460 1459 1458 1457 1456 1456 1455 1454 1454 1453 1453 1454 1454 1455 1456 1456 1457 1458 1459 1460 1461 1462 1463 1463 1464 1465 1466 1466 1467
1481 1485 1483 1474 1469 1470 1468 1466 1466 1463 1459 1459 1459 1458 1458 1457 1457 1456 1455 1454 1453 1453 1453 1452 1452 1452 1452 1452 1453 1454 1454 1455 1456 1456 1457 1458 1459 1460 1461 1461 1462 1463 1463 1464
1484 1485 1478 1462 1465 1464 1464 1462 1462 1460 1458 1458 1458 1456 1455 1455 1454 1453 1452 1451 1451 1450 1450 1450 1450 1450 1450 1450 1451 1452 1452 1452 1453 1454 1455 1456 1456 1457 1457 1458 1459 1459 1460 1460
1483 1475 1464 1461 1463 1464 1463 1459 1458 1457 1456 1457 1456 1454 1452 1452 1451 1451 1450 1449 1448 1447 1447 1446 1446 1447 1447 1447 1448 1449 1449 1449 1450 1451 1452 1452 1453 1453 1454 1455 1455 1456 1456 1456
1481 1474 1465 1457 1461 1462 1463 1457 1455 1455 1454 1455 1454 1451 1448 1449 1448 1447 1447 1446 1445 1444 1444 1443 1443 1443 1444 1444 1445 1445 1446 1446 1447 1448 1448 1449 1449 1450 1450 1451 1451 1452 1452 1452
1476 1471 1459 1459 1461 1462 1460 1453 1453 1452 1452 1452 1451 1450 1448 1446 1445 1444 1443 1442 1442 1441 1440 1440 1440 1440 1441 1441 1442 1442 1442 1443 1443 1444 1444 1445 1445 1446 1446 1447 1447 1448 1448 1448
1472 1469 1460 1458 1459 1458 1453 1452 1452 1451 1450 1449 1448 1446 1444 1443 1442 1441 1440 1439 1438 1437 1437 1437 1437 1437 1437 1437 1438 1438 1438 1439 1439 1440 1440 1441 1441 1441 1442 1443 1443 1443 1444 1444
1462 1457 1454 1455 1454 1453 1452 1451 1449 1448 1447 1446 1444 1443 1441 1440 1439 1438 1437 1436 1435 1434 1434 1434 1434 1434 1433 1433 1434 1434 1434 1434 1435 1435 1436 1436 1437 1437 1437 1438 1438 1439 1439 1439
1460 1453 1452 1452 1450 1450 1449 1448 1446 1445 1444 1442 1441 1439 1438 1437 1436 1435 1433 1433 1432 1431 1430 1430 1430 1430 1430 1430 1430 1430 1430 1430 1430 1430 1431 1432 1432 1433 1433 1433 1434 1434 1434 1434
1455 1450 1449 1447 1446 1446 1445 1443 1442 1441 1440 1438 1437 1435 1434 1433 1432 1431 1430 1429 1428 1427 1427 1426 1426 1426 1426 1426 1426 1426 1426 1426 1426 1426 1427 1427 1427 1428 1428 1429 1429 1430 1430 1430
1446 1445 1445 1443 1442 1442 1440 1439 1438 1437 1435 1434 1433 1432 1431 1429 1429 1428 1427 1426 1425 1424 1423 1423 1423 1422 1422 1422 1422 1422 1422 1422 1422 1422 1423 1423 1423 1423 1424 1424 1425 1425 1426 1426
1442 1441 1441 1439 1438 1437 1436 1435 1434 1433 1432 1430 1429 1428 1427 1426 1425 1424 1423 1422 1421 1420 1420 1419 1419 1418 1418 1418 1418 1418 1418 1418 1418 1418 1418 1419 1419 1419 1419 1420 1420 1421 1421 1422
1438 1438 1436 1435 1434 1433 1432 1431 1430 1429 1428 1427 1426 1425 1423 1422 1421 1420 1420 1419 1418 1417 1417 1416 1415 1414 1414 1414 1414 1414 1414 1413 1414 1414 1414 1415 1415 1415 1415 1416 1416 1416 1417 1418
1433 1433 1433 1432 1431 1430 1429 1428 1427 1425 1425 1424 1423 1421 1420 1419 1418 1417 1416 1416 1415 1414 1413 1412 1412 1411 1411 1410 1410 1410 1409 1409 1409 1410 1410 1411 1411 1411 1412 1412 1412 1412 1413 1414
1428 1428 1428 1427 1427 1426 1425 1424 1423 1422 1421 1420 1419 1418 1417 1416 1415 1414 1413 1412 1412 1410 1410 1409 1408 1408 1407 1407 1406 1406 1405 1405 1406 1406 1406 1406 1407 1407 1408 1408 1408 1408 1409 1410
1424 1423 1423 1423 1422 1421 1421 1420 1420 1418 1417 1416 1415 1414 1413 1412 1411 1411 1410 1409 1409 1408 1407 1406 1405 1405 1404 1403 1403 1402 1402 1402 1402 1402 1402 1403 1403 1403 1404 1404 1404 1405 1405 1406
1420 1420 1420 1419 1418 1418 1417 1417 1416 1415 1414 1413 1412 1411 1410 1409 1408 1407 1407 1406 1405 1405 1404 1403 1402 1402 1401 1401 1400 1399 1399 1399 1399 1399 1399 1399 1399 1400 1400 1401 1401 1401 1402 1403
1415 1416 1416 1415 1415 1414 1413 1413 1412 1411 1410 1410 1408 1407 1407 1406 1405 1404 1403 1403 1402 1401 1401 1400 1400 1399 1398 1398 1397 1397 1396 1396 1395 1395 1395 1396 1396 1396 1397 1397 1397 1398 1398 1399
1412 1412 1412 1412 1411 1411 1410 1409 1408 1408 1407 1406 1405 1404 1403 1403 1402 1402 1401 1400 1399 1399 1398 1397 1397 1396 1396 1395 1395 1394 1394 1393 1393 1393 1393 1393 1393 1393 1394 1394 1395 1395 1395 1396
1408 1408 1408 1408 1408 1407 1407 1406 1405 1404 1403 1403 1402 1401 1401 1400 1400 1399 1398 1398 1397 1397 1396 1395 1395 1394 1393 1393 1392 1392 1392 1391 1391 1390 1390 1390 1391 1391 1391 1391 1392 1392 1392 1392
1406 1405 1405 1405 1405 1404 1403 1403 1402 1401 1400 1400 1399 1398 1398 1397 1397 1397 1396 1396 1395 1394 1394 1393 1392 1392 1391 1391 1390 1390 1389 1389 1389 1388 1388 1388 1388 1388 1388 1389 1389 1389 1390 1390
1403 1403 1402 1402 1402 1401 1401 1400 1399 1399 1398 1397 1396 1396 1395 1395 1395 1394 1393 1393 1393 1392 1392 1391 1390 1390 1389 1389 1388 1388 1387 1387 1387 1386 1386 1386 1386 1386 1386 1386 1387 1387 1387 1387
1400 1400 1400 1399 1399 1399 1398 1397 1397 1396 1396 1395 1394 1394 1393 1393 1392 1392 1392 1391 1391 1390 1390 1389 1389 1388 1388 1387 1386 1386 1386 1385 1385 1385 1384 1384 1384 1384 1384 1384 1384 1385 1385 1385
1398 1398 1397 1397 1396 1396 1395 1395 1394 1394 1394 1393 1393 1392 1392 1391 1391 1390 1390 1389 1389 1389 1388 1388 1387 1386 1386 1385 1384 1384 1384 1383 1383 1383 1382 1382 1382 1382 1382 1382 1382 1382 1382 1382
1396 1396 1395 1395 1395 1394 1394 1393 1392 1392 1391 1391 1390 1390 1390 1389 1389 1388 1388 1387 1387 1387 1386 1385 1385 1384 1384 1383 1383 1382 1382 1381 1381 1381 1380 1380 1380 1380 1380 1380 1380 1380 1380 1380
1395 1394 1394 1393 1393 1393 1392 1391 1391 1390 1390 1389 1388 1388 1388 1387 1387 1386 1386 1385 1385 1384 1384 1383 1383 1382 1382 1381 1381 1380 1380 1379 1379 1379 1378 1378 1378 1378 1378 1378 1378 1378 1378 1378